Tracking 29892 objects as of 21-Nov-2024
HD Live streaming from Space Station
objects crossing your sky now

FENGYUN 1C DEB

Track FENGYUN 1C DEB now!
10-day predictions


NORAD ID: 32230
Int'l Code: 1999-025CWC
Perigee: 708.8 km
Apogee: 806.4 km
Inclination: 98.9 °
Period: 99.8 minutes
Semi major axis: 7128 km
RCS: 0.0054 m2 (small)
Launch date: May 10, 1999
Source: People's Republic of China (PRC)
Launch site: Taiyaun Space Center, China (TSC)

Note: This is SATELLITE DEBRIS
Your satellite tracking list
Your tracking list is empty




NASA's NSSDC Master Catalog

Two Line Element Set (TLE):
1 32230U 99025CWC 24325.82788760  .00022479  00000-0  65963-2 0  9992
2 32230  98.8640  89.4662 0068484 175.3701 338.1212 14.42431658550633
Source of the keplerian elements: AFSPC